Terminal Aerodrome Forecast
Issued by NWS Miami, FL

Home | Current Version | Previous Version | Text Only | Print | Product List | Glossary On
Versions: 1 2 3 4 5 6 7 8 9 10 11 12 13 14 15 16 17 18 19 20 21 22 23 24 25 26 27 28 29 30 31 32 33 34 35 36 37 38 39 40 41 42 43 44 45 46 47 48 49 50
000
FTUS42 KMFL 041752
TAFFLL
TAF
KFLL 041752Z 0418/0518 13007KT P6SM VCSH SCT035 SCT200
     FM042000 10008KT P6SM SCT030
     FM050100 13003KT P6SM FEW030 SCT250
     FM051500 14008KT P6SM SCT030 SCT250=

USA.gov is the U.S. government's official web portal to all federal, state and local government web resources and services.